Otar Kvilitaia

Olheiro - Lokomotivi
10 Set 2028
Domingo
Processo

Personalidade

Adaptabilidade (9) Ambição (5) Controvérsia (14) Lealdade (3) Pressão (12) Profissionalismo (15) Espírito Esportivo (11) Temperamento (10)

Perfil

Estilo de Treinamento Democrático
Licença Nacional A
Determinação 5
Gestão de Pessoas 6
Motivação 10
Disciplina 2
Satisfação no Trabalho
100%
Fadiga
0%
Função Olheiro
Salário 14.9K p/s
Contrato 14.03.2030

Desempenho

Comportamento Bom
Eficácia do Treinamento
30%
Desenvolvimento do Jogador
45%
Prevenção de Lesões
15%
Implementação Tática
20%

Eventos Recentes

Avaliou um jogador 14d atrás
Participou de uma reunião de recrutamento 14d atrás
Apresentou um dossiê à direção 14d atrás
Participou de uma reunião de recrutamento 21d atrás
Participou de uma reunião de recrutamento 28d atrás
Participou de uma reunião de recrutamento 35d atrás
Participou de uma reunião de recrutamento 42d atrás
Participou de uma reunião de recrutamento 49d atrás

Monitorando agora

65
Jogador Clube Status Habilidade Confiança Observado Última observação Último voto
Germán Cervera Alvarado Negociando 85 / 113 40% 1 21.08.2028 -
Sebastián Cocimano Nueva Chicago Ativo 97 / 119 40% 1 21.08.2028 -
Paolo Yrizar Chernomorets Negociando 88 / 97 40% 2 29.06.2028 -
Leandro Antunes Al-Riyadh Ativo 121 / 115 40% 6 29.06.2028 -
Will Davies Fleetwood Town Ativo 81 / 97 40% 1 28.06.2028 -
Ismail Achik Salernitana Ativo 92 / 108 40% 1 28.06.2028 -
Rushian Hepburn-Murphy Milton Keynes Dons Ativo 102 / 99 40% 1 26.06.2028 -
Daniel Barrea Godoy Cruz Ativo 122 / 114 40% 1 26.06.2028 -
Bashar Musa US Forces Armees Ativo 86 / 79 40% 1 22.06.2028 -
Tyler Walker Barrow AFC Negociando 92 / 98 40% 1 22.06.2028 -
Ben Waine Port Vale Ativo 105 / 116 40% 1 20.06.2028 -
Michele Emmausso Cosenza Ativo 98 / 97 40% 1 20.06.2028 -
Millar Matthews-Lewis Tranmere Rovers Ativo 87 / 88 40% 1 19.06.2028 -
Alessandro Bolzan Arzignano Ativo 112 / 109 40% 1 19.06.2028 -
Jan Cedilnik Chikhura Ativo 93 / 94 48% 1 06.06.2028 -
Nika Dumbadze Dinamo Batumi Ativo 83 / 83 48% 1 02.06.2028 -
Giacomo Zecca Torres Ativo 112 / 104 40% 1 31.05.2028 -
Gennaro Tutino Sampdoria Ativo 119 / 129 40% 1 31.05.2028 -
Lisandro Cabrera Maipú Ativo 100 / 116 40% 1 01.01.2028 -
Fabricio Rojas Khazar Ativo 125 / 114 40% 1 01.01.2028 -
Sagir Arce Saburtalo Ativo 102 / 98 40% 1 16.08.2027 -
Davit Gotsiridze Kolkheti Ativo 92 / 95 48% 1 09.08.2027 -
Davit Kvaratskhelia Zugdidi Ativo 77 / 88 44% 1 01.06.2027 -
Stanislav Biblyk Chaika Ativo 92 / 92 40% 1 01.06.2027 -
Ramazan Gadjimuradov Chelyabinsk Ativo 123 / 107 40% 2 31.05.2027 -
Mohau Nkota Al-Ettifaq Ativo 115 / 123 40% 3 31.05.2027 -
Kamran Aliev SKA Khabarovsk Ativo 115 / 110 40% 2 21.05.2027 -
Ruslan Apekov Torpedo Moscow Ativo 93 / 112 40% 4 21.05.2027 -
Joe Snowdon Swindon Town Ativo 87 / 77 40% 5 16.05.2027 -
Ekain Orobengoa Real Sociedad Ativo 83 / 88 40% 1 15.05.2027 -
Ilja Safronov Rotor Ativo 101 / 113 40% 1 15.05.2027 -
Alexis Coman Chaika Ativo 95 / 90 40% 1 14.05.2027 -
Peter Olayinka Al-Wehda Ativo 128 / 103 40% 1 08.05.2027 -
Nikita Demchenko Spartak Kostroma Ativo 106 / 85 40% 1 03.05.2027 -
Tudor Mendel-Idowu Gubbio Ativo 92 / 83 40% 2 24.04.2027 -
Aboubacar Doumbia Al-Orobah Ativo 82 / 111 40% 1 24.04.2027 -
Vasily Cherov Ufa Ativo 94 / 88 40% 2 22.04.2027 -
Iker Pozo Rodina Ativo 117 / 124 40% 1 19.04.2027 -
Đorđe Pantelić Spartak Kostroma Ativo 116 / 109 40% 1 19.04.2027 -
Rakan Al-Shamlan Al-Ta'ee Ativo 69 / 94 40% 1 17.04.2027 -
Krasian Kolev Chernomorets Ativo 100 / 92 40% 1 12.04.2027 -
Yakou Meïté Damac Ativo 123 / 111 40% 2 09.04.2027 -
Khalid Al-Ghannam Al-Ettifaq Ativo 123 / 110 40% 2 09.04.2027 -
Darío Ramírez Real Sociedad Ativo 72 / 107 40% 1 04.04.2027 -
Timofey Shipunov Ufa Ativo 78 / 90 40% 2 03.04.2027 -
Teddy Okou Al-Riyadh Ativo 127 / 115 40% 1 02.04.2027 -
Nuri Abdokov Fakel Ativo 108 / 109 40% 1 01.04.2027 -
Temirkan Sundukov Dinamo Makhachkala Ativo 106 / 117 40% 1 29.03.2027 -
Maxime Sivis Orenburg Ativo 103 / 116 40% 1 26.03.2027 -
Rashid Al-Salem Al-Mojzel Ativo 105 / 98 40% 1 26.03.2027 -
Vyacheslav Grulev Nizhniy Novgorod Ativo 120 / 119 40% 1 23.03.2027 -
Kirill Malyarov Shinnik Ativo 100 / 97 40% 1 21.03.2027 -
Andrey Nikitin Neftekhimik Ativo 89 / 95 40% 1 20.03.2027 -
Ilja Berkovskiy Torpedo Moscow Ativo 94 / 102 40% 1 20.03.2027 -
Jon Eceizabarrena Real Sociedad Ativo 107 / 103 40% 1 18.03.2027 -
George Edmundson Middlesbrough Ativo 118 / 120 40% 1 13.09.2026 -
Jaïro Riedewald Sheffield United Ativo 106 / 111 40% 1 13.09.2026 -
Tornike Jangidze Samtredia Ativo 89 / 74 40% 1 10.09.2026 -
Beka Dartsmelia Saburtalo Ativo 97 / 104 40% 1 09.09.2026 -
Gady Beyuku Blackburn Rovers Ativo 95 / 130 40% 1 08.09.2026 -
Giorgi Akhaladze Kolkheti Ativo 105 / 90 40% 1 08.09.2026 -
Tornike Grigalashvili Guria Ativo 71 / 100 44% 1 31.08.2026 -
Gonzalo Tapia Palestino Ativo 90 / 97 40% 1 05.08.2026 -
David Agudelo Depor Ativo 95 / 76 40% 1 01.08.2026 -
Tomás Ahumada Audax Italiano Ativo 81 / 97 40% 1 01.08.2026 -